Location: Ottawa
(45.4170°N, 75.7000°W)
Time: 09:24:47
(UTC-04:00)

Amateur Radio Satellites - All Passes

Search period start: 23 May 2015 08:54
Search period end: 24 May 2015 08:54
Location: Ottawa, 45.4170°N, 75.7000°W

Satellite Date Start Highest point End Downlink Frequencies (MHz)
Time Altitude Azimuth
GOMX 1 23 May 08:56:41 09:01:44 38° 94° (E) 09:06:38 467.674
AAUSAT CUBESAT 2 23 May 08:58:55 09:00:16 12° 87° (E) 09:01:49 437.432
Cosmos 2504 23 May 08:59:11 09:01:52 12° 76° (ENE) 09:05:04 435.465 / 435.565
VERMONT LUNAR 23 May 09:08:53 09:10:01 11° 206° (SSW) 09:11:05 437.305
TIGRISAT 23 May 09:09:11 09:10:17 11° 59° (ENE) 09:11:37 435.000
CANX-2 23 May 09:22:39 09:26:39 40° 98° (E) 09:30:37 2200.000
PCSat 23 May 09:22:55 09:26:35 18° 35° (NE) 09:30:21 145.827
UNISAT 6 23 May 09:25:47 09:28:35 16° 62° (ENE) 09:31:32 437.425
CUTE 1.7 + AOD 2 23 May 09:26:53 09:30:52 40° 97° (E) 09:34:51 437.475
HO-68 23 May 09:33:51 09:40:51 54° 100° (E) 09:47:50 435.675
AIST 1 23 May 09:40:58 09:44:22 22° 272° (W) 09:47:41
Cosmos 2491 23 May 09:48:35 09:53:39 16° 285° (WNW) 09:58:09 435.465 / 435.565
DELFI C3 23 May 09:54:09 09:56:31 16° 90° (E) 09:59:02 145.870
FUNcube-1 23 May 09:54:57 09:56:55 13° 87° (E) 09:59:02 145.935
SEEDS 23 May 09:56:12 10:00:23 71° 101° (ESE) 10:04:33 437.485
ANTELSAT 23 May 10:07:12 10:11:30 38° 70° (ENE) 10:15:51 437.575/2403.000
BRITE-PL 23 May 10:10:13 10:15:28 38° 292° (WNW) 10:20:34 437.365/2234.400
CUBEBUG 2 23 May 10:11:42 10:15:45 31° 94° (E) 10:19:42 437.445
COMPASS 1 23 May 10:16:24 10:20:35 86° 284° (WNW) 10:24:43 437.405
DOVE 4 23 May 10:18:16 10:23:29 62° 287° (WNW) 10:28:26 437.250
POLYITAN 1 23 May 10:18:38 10:22:00 23° 66° (ENE) 10:25:27 437.675
QB50P1 23 May 10:19:06 10:22:25 23° 66° (ENE) 10:25:51 145.935-145.965
PHONESAT 2.4 23 May 10:23:08 10:24:47 13° 206° (SSW) 10:26:22 2401.200-2431.200
BUGSAT 1 23 May 10:23:19 10:26:00 17° 64° (ENE) 10:28:49 437.445
CINEMA 3 23 May 10:27:46 10:32:40 88° 99° (E) 10:37:19 145.822/145.860
ZACube-1 23 May 10:32:10 10:36:07 32° 95° (E) 10:39:59 437.345
AAUSAT CUBESAT 2 23 May 10:32:18 10:36:25 67° 286° (WNW) 10:40:31 437.432
GOMX 1 23 May 10:34:52 10:39:46 33° 293° (WNW) 10:44:27 467.674
TIGRISAT 23 May 10:41:37 10:46:20 79° 75° (ENE) 10:51:01 435.000
UKube-1 23 May 10:43:30 10:46:37 20° 92° (E) 10:49:51 .
VELOX 1 23 May 10:44:58 10:46:11 11° 86° (E) 10:47:40 145.980
YUBILEINY 23 May 10:45:10 10:51:35 21° 303° (WNW) 10:57:37 435.215
DX 1 23 May 10:45:41 10:49:06 22° 93° (E) 10:52:36 434.975-435.025
Cosmos 2504 23 May 10:45:44 10:54:01 66° 94° (E) 11:01:49 435.465 / 435.565
NANOSAT C BR1 23 May 10:51:10 10:55:15 46° 71° (ENE) 10:59:24 145.865
Oscar 11 23 May 10:54:18 10:58:37 85° 284° (WNW) 11:02:55 145.826/435.025
QB50P2 23 May 10:55:53 11:00:03 54° 73° (ENE) 11:04:17 145.880/145.840
RS-15 23 May 10:57:24 11:08:20 83° 306° (NW) 11:19:41 29.354- 29.394
CANX-2 23 May 10:59:10 11:02:21 20° 294° (WNW) 11:05:25 2200.000
UNISAT 6 23 May 11:00:13 11:04:55 68° 259° (W) 11:09:35 437.425
HUMSAT D 23 May 11:01:11 11:04:53 30° 95° (E) 11:08:34 437.325/437.525
CUTE 1.7 + AOD 2 23 May 11:03:23 11:06:33 20° 295° (WNW) 11:09:38 437.475
PCSat 23 May 11:05:29 11:10:57 79° 58° (ENE) 11:16:22 145.827
UWE-3 23 May 11:07:50 11:12:21 85° 285° (WNW) 11:16:41 435.000/436.395/437.385
POPSAT HIP 1 23 May 11:09:09 11:13:25 73° 75° (ENE) 11:17:44 437.405
AISAT 23 May 11:13:10 11:16:43 23° 93° (E) 11:20:21 437.250
DUCHIFAT 1 23 May 11:14:37 11:18:53 81° 76° (ENE) 11:23:12 145.980
50 SAT 23 May 11:21:21 11:24:43 27° 95° (E) 11:28:04 437.505
HO-68 23 May 11:22:01 11:28:23 35° 299° (WNW) 11:34:36 435.675
SO-50 23 May 11:26:46 11:30:14 19° 32° (NNE) 11:33:48 436.795
DELFI C3 23 May 11:28:04 11:31:57 46° 288° (WNW) 11:35:47 145.870
FUNcube-1 23 May 11:29:25 11:33:48 65° 286° (WNW) 11:38:02 145.935
SEEDS 23 May 11:33:45 11:35:41 13° 298° (WNW) 11:37:28 437.485
ANTELSAT 23 May 11:44:25 11:48:24 26° 267° (W) 11:52:17 437.575/2403.000
CUBEBUG 2 23 May 11:48:27 11:52:23 29° 293° (WNW) 11:56:09 437.445
POLYITAN 1 23 May 11:53:42 11:57:43 37° 263° (W) 12:01:46 437.675
QB50P1 23 May 11:54:07 11:58:07 37° 263° (W) 12:02:07 145.935-145.965
BUGSAT 1 23 May 11:57:07 12:01:08 49° 261° (W) 12:05:13 437.445
DOVE 4 23 May 11:59:38 12:00:14 10° 305° (NW) 12:00:32 437.250
ESTCUBE 1 23 May 12:05:15 12:09:37 45° 99° (E) 12:13:58 437.505/2401.250
CINEMA 3 23 May 12:06:49 12:09:09 13° 301° (WNW) 12:11:16 145.822/145.860
ZACube-1 23 May 12:08:40 12:12:23 26° 293° (WNW) 12:15:57 437.345
UKube-1 23 May 12:18:51 12:23:00 43° 289° (WNW) 12:27:07 .
VELOX 1 23 May 12:18:54 12:23:25 80° 285° (WNW) 12:27:53 145.980
DX 1 23 May 12:21:24 12:25:31 39° 291° (WNW) 12:29:35 434.975-435.025
TIGRISAT 23 May 12:21:36 12:23:42 12° 274° (W) 12:25:34 435.000
NANOSAT C BR1 23 May 12:28:25 12:31:23 18° 269° (W) 12:34:15 145.865
DANDE 23 May 12:28:52 12:32:36 16° 76° (ENE) 12:37:06 436.750
CUBEBUG 1 23 May 12:29:14 12:33:41 71° 102° (ESE) 12:38:07 437.445
TISAT 1 23 May 12:29:23 12:31:53 15° 89° (E) 12:34:30 437.305
Oscar 11 23 May 12:33:29 12:34:09 10° 301° (WNW) 12:34:36 145.826/435.025
QB50P2 23 May 12:33:41 12:36:20 15° 271° (W) 12:38:51 145.880/145.840
HUMSAT D 23 May 12:37:01 12:40:34 26° 293° (WNW) 12:44:00 437.325/437.525
Cosmos 2504 23 May 12:40:54 12:48:02 29° 294° (WNW) 12:54:38 435.465 / 435.565
Oscar 19 23 May 12:44:11 12:48:42 32° 66° (ENE) 12:53:18 437.125/150
UWE-3 23 May 12:47:00 12:48:10 11° 301° (WNW) 12:49:05 435.000/436.395/437.385
POPSAT HIP 1 23 May 12:48:20 12:49:53 11° 273° (W) 12:51:14 437.405
AISAT 23 May 12:49:15 12:53:28 39° 290° (WNW) 12:57:38 437.250
PCSat 23 May 12:50:22 12:53:47 17° 254° (WSW) 12:56:58 145.827
ITAMSAT 1 23 May 12:51:52 12:53:59 13° 56° (ENE) 12:56:20 435.822/435.867
DUCHIFAT 1 23 May 12:54:59 12:55:23 10° 274° (W) 12:55:31 145.980
50 SAT 23 May 12:56:07 12:59:22 25° 292° (WNW) 13:02:32 437.505
Gurwin Techsat 1B 23 May 13:04:28 13:07:27 16° 58° (ENE) 13:10:37 435.225
SO-50 23 May 13:06:35 13:11:36 81° 53° (NE) 13:16:31 436.795
RS-15 23 May 13:12:43 13:22:39 36° 336° (NNW) 13:32:50 29.354- 29.394
GONETS M04 23 May 13:13:15 13:21:07 39° 86° (E) 13:29:08
SPROUT 23 May 13:24:12 13:28:35 79° 103° (ESE) 13:32:55 437.525
CUSAT 1 23 May 13:24:24 13:31:07 49° 91° (E) 13:38:58 437.405
AO-7 23 May 13:39:51 13:44:26 17° 43° (NE) 13:49:21 29.400- 29.500
ESTCUBE 1 23 May 13:42:47 13:46:13 21° 295° (WNW) 13:49:34 437.505/2401.250
JAS-2 23 May 13:56:07 13:58:07 12° 55° (NE) 14:00:22 435.910
VELOX 1 23 May 13:58:22 13:59:16 10° 302° (WNW) 13:59:57 145.980
TISAT 1 23 May 14:03:50 14:08:03 54° 287° (WNW) 14:12:12 437.305
CUBEBUG 1 23 May 14:07:06 14:09:33 14° 299° (WNW) 14:11:50 437.445
DANDE 23 May 14:07:33 14:14:19 74° 97° (E) 14:22:39 436.750
HORYU 2 23 May 14:14:12 14:14:40 10° 58° (ENE) 14:15:22 437.375
Oscar 19 23 May 14:23:10 14:27:59 37° 264° (W) 14:32:48 437.125/150
ITAMSAT 1 23 May 14:27:35 14:32:45 80° 74° (ENE) 14:37:58 435.822/435.867
ITUPSAT 1 23 May 14:34:45 14:39:23 49° 99° (E) 14:44:03 437.325
Gurwin Techsat 1B 23 May 14:41:28 14:46:47 85° 253° (WSW) 14:52:09 435.225
BEESAT 23 May 14:45:03 14:49:49 64° 102° (ESE) 14:54:33 436.000
SO-50 23 May 14:48:41 14:51:34 15° 250° (WSW) 14:54:16 436.795
SWISSCUBE 23 May 14:52:52 14:57:40 82° 103° (ESE) 15:02:28 437.505
SPROUT 23 May 15:02:10 15:04:06 13° 299° (WNW) 15:05:51 437.525
CUSAT 1 23 May 15:07:11 15:14:02 41° 293° (WNW) 15:21:44 437.405
GONETS M04 23 May 15:09:12 15:17:48 52° 287° (WNW) 15:26:23
Cosmos 2499 23 May 15:26:54 15:34:41 49° 91° (E) 15:41:59 435.465 / 435.565
AO-7 23 May 15:27:39 15:35:43 60° 65° (ENE) 15:43:53 29.400- 29.500
RS-15 23 May 15:29:47 15:39:15 30° 10° (N) 15:49:10 29.354- 29.394
STARS 23 May 15:32:26 15:35:59 24° 93° (E) 15:39:36 437.465
JAS-2 23 May 15:35:41 15:42:24 62° 72° (ENE) 15:48:21 435.910
HORYU 2 23 May 15:46:07 15:50:37 78° 75° (ENE) 15:55:07 437.375
DANDE 23 May 15:52:26 15:58:35 28° 301° (WNW) 16:05:25 436.750
KKS-1 23 May 15:54:06 15:58:34 62° 101° (E) 16:03:00 437.445
ITAMSAT 1 23 May 16:10:14 16:13:00 14° 273° (W) 16:15:30 435.822/435.867
ITUPSAT 1 23 May 16:13:20 16:17:00 22° 296° (WNW) 16:20:33 437.325
O/OREOS (USA 219) 23 May 16:22:21 16:26:23 33° 106° (ESE) 16:30:27 437.305
BEESAT 23 May 16:24:02 16:27:13 17° 298° (WNW) 16:30:14 436.000
Gurwin Techsat 1B 23 May 16:25:44 16:27:42 12° 276° (W) 16:29:21 435.225
SWISSCUBE 23 May 16:32:25 16:34:57 14° 301° (WNW) 16:37:18 437.505
Cubesat XI-IV 23 May 16:34:49 16:35:51 11° 54° (NE) 16:37:10 437.490
MOZHAYETS 4 23 May 16:54:50 16:58:29 24° 92° (E) 17:02:13
CUSAT 1 23 May 16:58:06 16:59:31 10° 318° (NW) 17:00:26 437.405
YUBILEINY 23 May 16:58:07 17:00:55 12° 47° (NE) 17:04:19 435.215
STARS 23 May 17:08:27 17:12:34 37° 291° (WNW) 17:16:37 437.465
GONETS M04 23 May 17:14:15 17:17:28 12° 314° (NW) 17:20:07
Cosmos 2499 23 May 17:20:34 17:28:04 37° 290° (WNW) 17:34:59 435.465 / 435.565
AO-7 23 May 17:21:36 17:29:01 34° 265° (W) 17:36:20 29.400- 29.500
JAS-2 23 May 17:22:21 17:27:51 25° 268° (W) 17:32:44 435.910
HORYU 2 23 May 17:26:16 17:27:54 11° 273° (W) 17:29:17 437.375
KKS-1 23 May 17:31:55 17:34:46 16° 298° (WNW) 17:37:28 437.445
RS-15 23 May 17:43:42 17:54:54 55° 41° (NE) 18:06:40 29.354- 29.394
CUTE-I 23 May 17:50:43 17:55:41 44° 69° (ENE) 18:00:45 437.470
O/OREOS (USA 219) 23 May 18:01:51 18:05:50 29° 305° (NW) 18:09:47 437.305
Cubesat XI-IV 23 May 18:09:48 18:15:02 64° 72° (ENE) 18:20:20 437.490
HO-68 23 May 18:22:50 18:25:04 12° 45° (NE) 18:27:40 435.675
CUBESAT XI-V 23 May 18:23:00 18:26:02 17° 89° (E) 18:29:14 437.345
MOZHAYETS 4 23 May 18:31:37 18:35:52 38° 290° (WNW) 18:40:04
BEESAT 3 23 May 18:46:12 18:49:24 23° 115° (ESE) 18:52:41 437.485
YUBILEINY 23 May 18:51:58 19:00:27 54° 74° (ENE) 19:08:56 435.215
Cosmos 2491 23 May 18:58:17 19:05:07 27° 82° (E) 19:12:15 435.465 / 435.565
BEESAT 2 23 May 19:28:48 19:32:46 50° 120° (ESE) 19:36:48 435.950
CUTE-I 23 May 19:31:29 19:35:59 27° 267° (W) 19:40:26 437.470
BRITE-PL 23 May 19:44:24 19:49:10 45° 70° (ENE) 19:54:20 437.365/2234.400
STRAND 1 23 May 19:45:06 19:50:01 45° 98° (E) 19:54:57 437.568
PRISM 23 May 19:48:45 19:52:50 55° 101° (E) 19:56:54 437.425
DOVE 4 23 May 19:48:54 19:52:55 24° 64° (ENE) 19:57:10 437.250
Cubesat XI-IV 23 May 19:51:59 19:55:42 18° 271° (W) 19:59:14 437.490
AAUSAT CUBESAT 2 23 May 19:52:25 19:53:56 12° 62° (ENE) 19:55:38 437.432
RS-15 23 May 19:56:24 20:07:37 56° 245° (WSW) 20:19:09 29.354- 29.394
CINEMA 3 23 May 19:56:28 19:59:13 15° 60° (ENE) 20:02:10 145.822/145.860
CUBESAT XI-V 23 May 19:59:17 20:03:53 55° 287° (WNW) 20:08:28 437.345
HO-68 23 May 20:04:28 20:11:18 50° 65° (ENE) 20:18:13 435.675
GOMX 1 23 May 20:06:22 20:11:13 48° 71° (ENE) 20:16:24 467.674
CANX-2 23 May 20:17:35 20:21:33 39° 71° (ENE) 20:25:33 2200.000
Oscar 11 23 May 20:18:13 20:19:37 12° 60° (ENE) 20:21:14 145.826/435.025
M-CUBED/EXP-1 PRIME 23 May 20:20:19 20:23:32 43° 105° (ESE) 20:26:41 437.505
CUTE 1.7 + AOD 2 23 May 20:21:44 20:25:42 39° 71° (ENE) 20:29:42 437.475
BEESAT 3 23 May 20:23:16 20:27:10 41° 312° (NW) 20:31:07 437.485
AIST 2 23 May 20:32:00 20:36:14 66° 123° (ESE) 20:40:30 435.215
AUBIESAT-1 23 May 20:32:06 20:35:24 52° 106° (ESE) 20:38:37 437.475
UWE-3 23 May 20:32:55 20:35:09 14° 61° (ENE) 20:37:36 435.000/436.395/437.385
AIST 1 23 May 20:35:40 20:38:36 19° 87° (E) 20:41:40
Cosmos 2504 23 May 20:36:28 20:42:07 24° 63° (ENE) 20:47:52 435.465 / 435.565
DELFI C3 23 May 20:44:21 20:46:27 14° 63° (ENE) 20:48:42 145.870
YUBILEINY 23 May 20:49:17 20:57:02 37° 274° (W) 21:04:37 435.215
SEEDS 23 May 20:50:05 20:54:16 65° 74° (ENE) 20:58:28 437.485
Cosmos 2491 23 May 20:52:30 21:01:17 71° 282° (WNW) 21:10:09 435.465 / 435.565
FUNcube-1 23 May 20:52:37 20:55:22 16° 63° (ENE) 20:58:15 145.935
BEESAT 2 23 May 21:07:44 21:11:07 23° 320° (NW) 21:14:28 435.950
COMPASS 1 23 May 21:09:24 21:13:37 85° 76° (ENE) 21:17:49 437.405
CUBEBUG 2 23 May 21:11:32 21:15:53 37° 69° (ENE) 21:20:16 437.445
BRITE-PL 23 May 21:23:45 21:27:57 26° 270° (W) 21:32:20 437.365/2234.400
STRAND 1 23 May 21:24:45 21:29:01 26° 296° (WNW) 21:33:12 437.568
AAUSAT CUBESAT 2 23 May 21:24:51 21:29:01 76° 258° (WSW) 21:33:12 437.432
PRISM 23 May 21:25:20 21:27:54 16° 297° (WNW) 21:30:20 437.425
DOVE 4 23 May 21:25:25 21:30:20 51° 262° (W) 21:35:29 437.250
ZACube-1 23 May 21:29:50 21:34:01 36° 69° (ENE) 21:38:14 437.345
CINEMA 3 23 May 21:30:49 21:35:47 82° 259° (WSW) 21:40:53 145.822/145.860
UKube-1 23 May 21:40:30 21:43:52 23° 65° (ENE) 21:47:20 .
DX 1 23 May 21:43:25 21:47:01 26° 66° (ENE) 21:50:41 434.975-435.025
VELOX 1 23 May 21:44:26 21:46:47 15° 61° (ENE) 21:49:20 145.980
GOMX 1 23 May 21:45:27 21:49:38 25° 270° (W) 21:53:54 467.674
Oscar 11 23 May 21:50:52 21:55:13 85° 257° (WSW) 21:59:35 145.826/435.025
HO-68 23 May 21:52:45 21:59:17 36° 265° (W) 22:05:45 435.675
CANX-2 23 May 21:54:21 21:57:39 21° 268° (W) 22:00:52 2200.000
HUMSAT D 23 May 21:54:56 21:58:41 30° 68° (ENE) 22:02:29 437.325/437.525
M-CUBED/EXP-1 PRIME 23 May 21:56:25 21:58:06 13° 302° (WNW) 21:59:41 437.505
CUTE 1.7 + AOD 2 23 May 21:58:30 22:01:48 21° 268° (W) 22:04:59 437.475
UWE-3 23 May 22:06:24 22:11:06 82° 257° (WSW) 22:15:49 435.000/436.395/437.385
50 SAT 23 May 22:08:20 22:11:30 23° 67° (ENE) 22:14:44 437.505
AUBIESAT-1 23 May 22:08:40 22:09:49 11° 303° (WNW) 22:10:50 437.475
AIST 1 23 May 22:11:59 22:16:00 39° 285° (WNW) 22:20:02
AIST 2 23 May 22:11:59 22:15:15 20° 322° (NW) 22:18:27 435.215
AISAT 23 May 22:13:05 22:16:50 28° 66° (ENE) 22:20:39 437.250
RS-15 23 May 22:14:04 22:17:50 11° 265° (W) 22:20:25 29.354- 29.394
DELFI C3 23 May 22:17:10 22:21:09 58° 259° (W) 22:25:09 145.870
CUSAT 1 23 May 22:22:09 22:23:18 10° 42° (NE) 22:24:52 437.405
FUNcube-1 23 May 22:26:40 22:31:14 65° 259° (W) 22:35:49 145.935
SEEDS 23 May 22:28:38 22:30:35 12° 273° (W) 22:32:19 437.485
Cosmos 2504 23 May 22:29:04 22:36:19 68° 266° (W) 22:43:24 435.465 / 435.565
TIGRISAT 23 May 22:33:08 22:35:14 13° 87° (E) 22:37:30 435.000
CUBEBUG 2 23 May 22:48:32 22:52:38 28° 267° (W) 22:56:41 437.445
UNISAT 6 23 May 22:50:58 22:54:19 21° 91° (E) 22:57:43 437.425
Cosmos 2491 23 May 22:54:38 23:00:13 17° 307° (NW) 23:05:22 435.465 / 435.565
POPSAT HIP 1 23 May 22:55:16 22:55:43 10° 86° (E) 22:56:26 437.405
DUCHIFAT 1 23 May 22:59:31 23:00:48 11° 87° (E) 23:02:18 145.980
DANDE 23 May 23:05:35 23:10:53 19° 51° (NE) 23:16:01 436.750
ZACube-1 23 May 23:06:31 23:10:27 26° 267° (W) 23:14:18 437.345
ESTCUBE 1 23 May 23:06:53 23:11:15 54° 72° (ENE) 23:15:40 437.505/2401.250
CINEMA 3 23 May 23:12:48 23:13:54 10° 277° (W) 23:14:39 145.822/145.860
UKube-1 23 May 23:15:46 23:19:49 38° 262° (W) 23:23:53 .
VELOX 1 23 May 23:18:27 23:22:51 69° 257° (WSW) 23:27:19 145.980
DX 1 23 May 23:19:12 23:23:10 33° 264° (W) 23:27:07 434.975-435.025
GONETS M04 23 May 23:20:35 23:26:56 22° 58° (ENE) 23:33:33
TISAT 1 23 May 23:23:58 23:26:35 17° 63° (ENE) 23:29:21 437.305
CUBEBUG 1 23 May 23:27:18 23:31:39 77° 74° (ENE) 23:36:03 437.445
HUMSAT D 23 May 23:30:39 23:34:26 28° 266° (W) 23:38:09 437.325/437.525
ANTELSAT 23 May 23:33:30 23:37:54 58° 100° (E) 23:42:10 437.575/2403.000
POLYITAN 1 23 May 23:36:57 23:40:44 30° 95° (E) 23:44:31 437.675
QB50P1 23 May 23:37:01 23:40:48 29° 95° (E) 23:44:34 145.935-145.965
BUGSAT 1 23 May 23:37:41 23:40:53 21° 92° (E) 23:44:11 437.445
50 SAT 23 May 23:42:27 23:46:05 32° 264° (W) 23:49:42 437.505
AISAT 23 May 23:49:18 23:53:20 32° 264° (W) 23:57:21 437.250
CUSAT 1 24 May 00:01:16 00:08:41 44° 68° (ENE) 00:14:47 437.405
TIGRISAT 24 May 00:08:07 00:12:32 64° 287° (WNW) 00:16:49 435.000
NANOSAT C BR1 24 May 00:09:26 00:13:44 65° 101° (E) 00:17:57 145.865
ITUPSAT 1 24 May 00:10:28 00:11:12 10° 57° (ENE) 00:12:10 437.325
QB50P2 24 May 00:14:43 00:19:02 76° 102° (ESE) 00:23:18 145.880/145.840
ISS 24 May 00:18:03 00:19:19 12° 133° (SE) 00:20:41 145.825
BEESAT 24 May 00:19:04 00:21:07 13° 59° (ENE) 00:23:23 436.000
SPROUT 24 May 00:20:12 00:24:30 79° 76° (ENE) 00:28:52 437.525
SWISSCUBE 24 May 00:26:05 00:28:55 16° 61° (ENE) 00:31:54 437.505
Cosmos 2504 24 May 00:26:26 00:28:21 11° 285° (WNW) 00:29:45 435.465 / 435.565
UNISAT 6 24 May 00:27:08 00:31:19 40° 290° (WNW) 00:35:22 437.425
POPSAT HIP 1 24 May 00:27:56 00:32:16 80° 285° (WNW) 00:36:32 437.405
DUCHIFAT 1 24 May 00:32:55 00:37:13 73° 286° (WNW) 00:41:27 145.980
ESTCUBE 1 24 May 00:45:36 00:48:31 16° 271° (W) 00:51:18 437.505/2401.250
DANDE 24 May 00:47:37 00:56:00 73° 76° (ENE) 01:02:51 436.750
O/OREOS (USA 219) 24 May 00:51:49 00:54:00 14° 46° (NE) 00:56:21 437.305
TISAT 1 24 May 00:57:49 01:01:59 54° 260° (W) 01:06:11 437.305
CUBEBUG 1 24 May 01:07:14 01:08:39 11° 274° (W) 01:09:49 437.445
ANTELSAT 24 May 01:11:25 01:14:16 16° 298° (WNW) 01:16:55 437.575/2403.000
BUGSAT 1 24 May 01:12:31 01:16:33 39° 289° (WNW) 01:20:30 437.445
POLYITAN 1 24 May 01:12:53 01:16:36 28° 292° (WNW) 01:20:13 437.675
QB50P1 24 May 01:12:54 01:16:38 28° 292° (WNW) 01:20:15 145.935-145.965
Cosmos 2499 24 May 01:16:20 01:20:42 17° 58° (ENE) 01:25:20 435.465 / 435.565
GONETS M04 24 May 01:16:24 01:25:17 90° 83° (E) 01:34:02
ITUPSAT 1 24 May 01:43:35 01:48:20 73° 73° (ENE) 01:53:06 437.325
CUSAT 1 24 May 01:44:15 01:51:18 39° 272° (W) 01:57:01 437.405
NANOSAT C BR1 24 May 01:46:41 01:49:06 15° 298° (WNW) 01:51:22 145.865
PCSat 24 May 01:49:17 01:54:24 46° 115° (ESE) 01:59:36 145.827
ISS 24 May 01:52:02 01:55:18 79° 146° (SSE) 01:58:33 145.825
QB50P2 24 May 01:52:25 01:54:23 13° 299° (WNW) 01:56:10 145.880/145.840
BEESAT 24 May 01:53:35 01:58:21 88° 263° (W) 02:03:08 436.000
SPROUT 24 May 02:00:10 02:01:15 11° 274° (W) 02:02:04 437.525
SWISSCUBE 24 May 02:01:33 02:06:17 69° 258° (WSW) 02:11:04 437.505
BEESAT 2 24 May 02:09:20 02:11:07 13° 30° (NNE) 02:13:00 435.950
O/OREOS (USA 219) 24 May 02:29:40 02:34:10 88° 247° (WSW) 02:38:38 437.305
STARS 24 May 02:31:22 02:35:09 28° 67° (ENE) 02:39:00 437.465
DANDE 24 May 02:31:55 02:38:23 26° 278° (W) 02:43:49 436.750
Oscar 19 24 May 02:31:58 02:37:08 66° 101° (E) 02:42:15 437.125/150
ITAMSAT 1 24 May 02:38:48 02:42:57 24° 92° (E) 02:47:11 435.822/435.867
KKS-1 24 May 02:54:08 02:58:35 73° 74° (ENE) 03:03:06 437.445
Gurwin Techsat 1B 24 May 02:55:46 03:00:30 32° 95° (E) 03:05:16 435.225
BEESAT 3 24 May 03:02:08 03:05:49 31° 44° (NE) 03:09:28 437.485
Cosmos 2499 24 May 03:07:58 03:15:07 90° 79° (E) 03:22:14 435.465 / 435.565
AIST 2 24 May 03:14:16 03:16:51 16° 33° (NNE) 03:19:30 435.215
GONETS M04 24 May 03:14:56 03:21:03 20° 282° (WNW) 03:26:43
VERMONT LUNAR 24 May 03:23:28 03:24:43 12° 154° (SSE) 03:26:02 437.305
ITUPSAT 1 24 May 03:24:23 03:26:51 13° 273° (W) 03:29:04 437.325
SO-50 24 May 03:24:59 03:27:40 16° 110° (ESE) 03:30:36 436.795
AO-7 24 May 03:28:48 03:32:59 15° 84° (E) 03:37:44 29.400- 29.500
ISS 24 May 03:28:59 03:31:57 31° 348° (NNW) 03:34:55 145.825
PCSat 24 May 03:33:07 03:38:01 33° 315° (NW) 03:42:54 145.827
BEESAT 24 May 03:36:09 03:37:00 10° 275° (W) 03:37:34 436.000
HORYU 2 24 May 03:37:07 03:38:58 13° 88° (E) 03:41:01 437.375
BEESAT 2 24 May 03:45:58 03:50:05 62° 51° (NE) 03:54:07 435.950
MOZHAYETS 4 24 May 03:58:52 04:02:48 30° 68° (ENE) 04:06:47
STARS 24 May 04:07:32 04:11:32 32° 264° (W) 04:15:31 437.465
Oscar 19 24 May 04:12:24 04:16:02 19° 299° (WNW) 04:19:30 437.125/150
ITAMSAT 1 24 May 04:17:42 04:22:44 48° 290° (WNW) 04:27:44 435.822/435.867
JAS-2 24 May 04:27:48 04:32:38 38° 97° (E) 04:37:30 435.910
KKS-1 24 May 04:33:52 04:35:50 12° 273° (W) 04:37:35 437.445
Gurwin Techsat 1B 24 May 04:35:40 04:40:32 37° 293° (WNW) 04:45:21 435.225
BEESAT 3 24 May 04:40:07 04:43:48 32° 243° (WSW) 04:47:22 437.485
PHONESAT 2.4 24 May 04:47:36 04:49:42 15° 156° (SSE) 04:51:50 2401.200-2431.200
AIST 2 24 May 04:51:51 04:56:07 85° 54° (NE) 05:00:17 435.215
VERMONT LUNAR 24 May 04:58:32 05:01:21 28° 170° (S) 05:04:10 437.305
SO-50 24 May 05:02:56 05:07:39 75° 307° (NW) 05:12:33 436.795
Cosmos 2499 24 May 05:03:11 05:07:18 16° 281° (W) 05:11:03 435.465 / 435.565
Cosmos 2491 24 May 05:05:10 05:09:53 16° 51° (NE) 05:15:04 435.465 / 435.565
ISS 24 May 05:06:03 05:08:57 28° 8° (N) 05:11:52 145.825
HORYU 2 24 May 05:11:44 05:16:11 70° 286° (WNW) 05:20:34 437.375
AO-7 24 May 05:19:04 05:27:28 73° 106° (ESE) 05:35:51 29.400- 29.500
PCSat 24 May 05:22:42 05:23:15 10° 339° (NNW) 05:23:40 145.827
BEESAT 2 24 May 05:25:20 05:27:44 15° 249° (WSW) 05:29:58 435.950
STRAND 1 24 May 05:27:42 05:29:42 13° 57° (ENE) 05:31:55 437.568
CUBESAT XI-V 24 May 05:28:36 05:32:05 22° 65° (ENE) 05:35:41 437.345
MOZHAYETS 4 24 May 05:35:53 05:40:00 31° 265° (W) 05:44:04
M-CUBED/EXP-1 PRIME 24 May 05:38:23 05:39:48 12° 57° (ENE) 05:41:21 437.505
AUBIESAT-1 24 May 05:49:18 05:51:10 13° 58° (ENE) 05:53:07 437.475
CUTE-I 24 May 06:06:55 06:09:39 14° 87° (E) 06:12:39 437.470
YUBILEINY 24 May 06:07:31 06:08:40 10° 72° (ENE) 06:10:33 435.215
JAS-2 24 May 06:13:15 06:17:44 29° 295° (WNW) 06:22:05 435.910
PHONESAT 2.4 24 May 06:24:08 06:27:16 32° 172° (S) 06:30:26 2401.200-2431.200
Cubesat XI-IV 24 May 06:25:33 06:29:34 22° 91° (E) 06:33:42 437.490
AIST 2 24 May 06:32:49 06:34:05 11° 251° (WSW) 06:35:09 435.215
VERMONT LUNAR 24 May 06:35:17 06:38:11 31° 186° (S) 06:41:04 437.305
PRISM 24 May 06:40:50 06:44:48 54° 72° (ENE) 06:48:49 437.425
ISS 24 May 06:42:26 06:45:43 79° 27° (NNE) 06:48:59 145.825
SO-50 24 May 06:45:48 06:49:05 18° 330° (NNW) 06:52:20 436.795
Cosmos 2491 24 May 07:00:10 07:08:59 67° 77° (ENE) 07:17:45 435.465 / 435.565
STRAND 1 24 May 07:03:04 07:08:10 80° 74° (ENE) 07:13:18 437.568
CUBESAT XI-V 24 May 07:04:53 07:09:17 44° 262° (W) 07:13:43 437.345
M-CUBED/EXP-1 PRIME 24 May 07:09:55 07:14:15 84° 251° (WSW) 07:18:14 437.505
AO-7 24 May 07:12:38 07:19:41 31° 306° (NW) 07:26:35 29.400- 29.500
AUBIESAT-1 24 May 07:21:19 07:25:35 72° 252° (WSW) 07:29:31 437.475
CUTE-I 24 May 07:45:06 07:50:29 81° 287° (WNW) 07:55:52 437.470
BRITE-PL 24 May 07:48:20 07:51:26 15° 84° (E) 07:54:44 437.365/2234.400
YUBILEINY 24 May 07:55:16 08:03:44 58° 92° (E) 08:12:15 435.215
PHONESAT 2.4 24 May 08:01:52 08:05:01 32° 189° (S) 08:08:10 2401.200-2431.200
Cubesat XI-IV 24 May 08:04:50 08:10:04 56° 290° (WNW) 08:15:18 437.490
GOMX 1 24 May 08:07:53 08:10:30 14° 84° (E) 08:13:21 467.674
VERMONT LUNAR 24 May 08:12:51 08:14:53 16° 202° (SSW) 08:16:53 437.305
RS-15 24 May 08:14:38 08:21:34 21° 101° (E) 08:29:13 29.354- 29.394
AIST 1 24 May 08:16:22 08:20:42 60° 79° (ENE) 08:25:03
PRISM 24 May 08:18:22 08:20:39 14° 270° (W) 08:22:47 437.425
ISS 24 May 08:19:36 08:21:48 17° 224° (SW) 08:23:56 145.825
STRAND 1 24 May 08:45:28 08:48:06 14° 273° (W) 08:50:29 437.568
